Regional Weather Roundup
Issued by NWS

Home | Current Version | Previous Version | Graphics & Text | Print | Product List | Glossary Off
Versions: 1 2 3 4 5 6 7 8 9 10 11 12 13 14 15 16 17 18 19 20 21 22 23 24 25 26 27

000
ASUS43 KDMX 240407
RWRIA

WEATHER ROUNDUP FOR IOWA
NATIONAL WEATHER SERVICE DES MOINES IA
1100 PM CDT WED APR 23 2014

NOTE: "FAIR" INDICATES FEW OR NO CLOUDS BELOW 12,000 FEET WITH NO
SIGNIFICANT WEATHER AND/OR OBSTRUCTIONS TO VISIBILITY.

* - THESE STATIONS ARE NOT NWS STATIONS...THUS NOT UNDER NWS
QUALITY CONTROL.  THEY ALSO DO NOT REPORT WEATHER SUCH
AS PRECIPITATION OR FOG.

IAZ001>003-012>014-020>022-031>034-043>046-240500-
   NORTHWEST IOWA

CITY           SKY/WX    TMP DP  RH WIND       PRES   REMARKS
CARROLL *      CLOUDY    48  43  81 NE8       29.78R
CHEROKEE *     LGT RAIN  46  41  81 E9        29.75S
DENISON *      MOCLDY    50  43  76 E13G23    29.72F
LE MARS *        N/A     48  45  87 NE9       29.72F
ORANGE CITY *  LGT RAIN  48  41  76 SE9       29.73S
SHELDON *      MOCLDY    46  41  81 SE18      29.72F
SIOUX CITY     LGT RAIN  52  48  86 E20       29.65F
SPENCER        LGT RAIN  44  40  85 SE20      29.74F
STORM LAKE *   CLOUDY    46  43  87 SE22G30   29.76S
$$

IAZ055>058-069>071-079>083-090>094-240500-
   SOUTHWEST IOWA

CITY           SKY/WX    TMP DP  RH WIND       PRES   REMARKS
ATLANTIC *     CLOUDY    54  41  62 SE15G21   29.70S
AUDUBON *      MOCLDY    50  41  71 E9        29.75S
CLARINDA *     MOCLDY    59  43  55 SE14G20   29.70F
COUNCIL BLFS * CLOUDY    54  46  76 E10       29.67R
CRESTON *      MOCLDY    54  39  58 SE18G26   29.75R
HARLAN  *      MOCLDY    50  43  76 E7        29.76R
LAMONI         MOCLDY    55  37  50 SE14G26   29.76R
RED OAK *      MOCLDY    59  43  55 SE16G24   29.67S
SHENANDOAH *   PTCLDY    63  41  45 SE22G32   29.66R
$$

IAZ047>049-059>061-072>074-084-240500-
   CENTRAL IOWA

CITY           SKY/WX    TMP DP  RH WIND       PRES   REMARKS
AMES           CLOUDY    47  39  74 SE12G20   29.81R
ANKENY *       CLOUDY    50  39  66 SE14      29.80R
CHARITON *     CLOUDY    55  36  47 SE18G28   29.79R
DES MOINES     CLOUDY    52  38  58 SE10      29.80R
GRINNELL*      CLOUDY    48  37  66 SE15G21   29.85R
KNOXVILLE *    CLOUDY    52  36  54 SE17      29.79R
MARSHALLTOWN   CLOUDY    47  39  74 SE17      29.85R
NEWTON *       MOCLDY    48  39  71 SE14      29.84S
PELLA *        CLOUDY    50  37  62 SE14      29.83R
PERRY *        CLOUDY    50  39  66 SE14      29.78R
$$

IAZ004>006-015-016-023>025-035-036-240500-
   NORTH CENTRAL IOWA

CITY           SKY/WX    TMP DP  RH WIND       PRES   REMARKS
ALGONA *       CLOUDY    45  39  81 SE16G25   29.80F
CLARION *      CLOUDY    45  41  87 SE18G29   29.82S
ESTHERVILLE    CLOUDY    43  40  89 SE21      29.78F
FORT DODGE *   CLOUDY    45  39  81 SE5       29.83R
MASON CITY     LGT RAIN  44  38  79 SE16      29.87R
FOREST CITY *  CLOUDY    45  37  76 SE13G20   29.84S
IOWA FALLS *   CLOUDY    45  41  87 E14       29.86R
$$

IAZ007>011-017>019-026>030-037>042-050>054-066-240500-
   NORTHEAST IOWA

CITY           SKY/WX    TMP DP  RH WIND       PRES   REMARKS
CEDAR RAPIDS   CLOUDY    47  39  74 SE20G30   29.86F
CHARLES CITY * CLOUDY    45  37  76 SE17      29.90R
CLINTON *      CLOUDY    46  36  66 SE17      30.01S
DECORAH *      CLOUDY    45  37  76 SE10G23   29.92F
DUBUQUE        CLOUDY    46  37  71 SE12      29.96F
MONTICELLO *   CLOUDY    46  39  76 E17       29.93S
OELWEIN *      CLOUDY   N/A N/A N/A SE23G30   29.90S
WATERLOO       LGT RAIN  46  38  73 SE21G26   29.87R
$$

IAZ064-065-067-068-078-240500-
   EAST CENTRAL IOWA

CITY           SKY/WX    TMP DP  RH WIND       PRES   REMARKS
DAVENPORT      CLOUDY    47  39  74 E14       29.97F
IOWA CITY      CLOUDY    47  41  80 E10       29.91F
MT. PLEASANT * MOCLDY    52  34  50 SE15      29.89F
MUSCATINE *    PTCLDY    52  37  58 SE16G23   29.91F
QUAD CITIES    CLOUDY    48  39  71 E10       29.96F
$$

IAZ062-063-075>077-085>089-095>099-240500-
   SOUTHEAST IOWA

CITY           SKY/WX    TMP DP  RH WIND       PRES   REMARKS
BURLINGTON     MOCLDY    53  33  46 SE17      29.90S
FAIRFIELD *    CLOUDY    50  36  57 SE13      29.87S
FORT MADISON * CLEAR     52  34  50 SE8       29.91R
KEOKUK *       CLEAR     54  30  40 SE13G23   29.87F
OSKALOOSA *      N/A     48  39  71 SE17      29.83F
CENTERVILLE *  CLEAR     54  36  50 SE17G26   29.82S
OTTUMWA        CLOUDY    49  36  61 SE15      29.82F
WASHINGTON *   PTCLDY    48  39  71 SE14      29.88F
$$

ABBREVIATIONS USED IN REMARKS
   TC - TEMPERATURES IN CELSIUS
  WCI - WIND CHILL INDEX
   HX - HEAT INDEX
  VSB - VISIBILITY
$$




USA.gov is the U.S. government's official web portal to all federal, state and local government web resources and services.